• în Republica Moldova
  • Lista ţărilor
  • Pe 7 zile
  • Temperatura apei
  • Hartă satelitară
  • Meteo pe hartă
  • Widget-uri
  • user-avatar
    Intrare

    Meteo pe oră la Shusha

    Astăzi, 30 Martie, Joi

    Timp Temperatura Precipitaţii Vânt Presiune Umiditate
    00:00 +2°C° 0 mm 1 m/s 661 mmHg 82%
    01:00 +2°C° 0 mm 1 m/s 661 mmHg 84%
    02:00 +1°C° 0 mm 1 m/s 661 mmHg 86%
    03:00 0°C° 0 mm 1 m/s 661 mmHg 86%
    04:00 0°C° 0 mm 1 m/s 661 mmHg 86%
    05:00 0°C° 0 mm 1 m/s 661 mmHg 86%
    06:00 0°C° 0 mm 1 m/s 661 mmHg 86%
    07:00 +3°C° 0 mm 1 m/s 661 mmHg 76%
    08:00 +6°C° 0 mm 1 m/s 662 mmHg 66%
    09:00 +7°C° 0 mm 2 m/s 663 mmHg 55%
    10:00 +9°C° 0 mm 2 m/s 663 mmHg 52%
    11:00 +10°C° 0 mm 2 m/s 662 mmHg 49%
    12:00 +12°C° 0 mm 2 m/s 662 mmHg 46%
    13:00 +12°C° 0 mm 2 m/s 662 mmHg 46%
    14:00 +12°C° 0 mm 2 m/s 661 mmHg 46%
    15:00 +13°C° 0 mm 2 m/s 660 mmHg 46%
    16:00 +10°C° 0 mm 2 m/s 660 mmHg 54%
    17:00 +9°C° 0 mm 1 m/s 659 mmHg 63%
    18:00 +7°C° 0 mm 1 m/s 658 mmHg 72%
    19:00 +6°C° 0 mm 1 m/s 658 mmHg 74%
    20:00 +5°C° 0 mm 1 m/s 658 mmHg 76%
    21:00 +4°C° 0 mm 1 m/s 658 mmHg 78%
    22:00 +4°C° 0 mm 1 m/s 658 mmHg 75%
    23:00 +3°C° 0 mm 2 m/s 658 mmHg 73%

    Mâine, 31 Martie, Vineri

    Timp Temperatura Precipitaţii Vânt Presiune Umiditate
    00:00 +3°C° 0 mm 2 m/s 658 mmHg 71%
    01:00 +3°C° 0 mm 2 m/s 658 mmHg 68%
    02:00 +3°C° 0 mm 2 m/s 658 mmHg 66%
    03:00 +3°C° 0 mm 2 m/s 658 mmHg 63%
    04:00 +3°C° 0 mm 2 m/s 658 mmHg 62%
    05:00 +3°C° 0 mm 2 m/s 658 mmHg 61%
    06:00 +2°C° 0 mm 2 m/s 658 mmHg 60%
    07:00 +6°C° 0 mm 1 m/s 659 mmHg 54%
    08:00 +9°C° 0 mm 1 m/s 660 mmHg 48%
    09:00 +11°C° 0 mm 1 m/s 661 mmHg 42%
    10:00 +12°C° 0 mm 2 m/s 661 mmHg 41%
    11:00 +13°C° 0 mm 2 m/s 661 mmHg 40%
    12:00 +13°C° 0 mm 3 m/s 661 mmHg 39%
    13:00 +12°C° 0,1 mm 4 m/s 661 mmHg 44%
    14:00 +12°C° 0,1 mm 4 m/s 661 mmHg 48%
    15:00 +10°C° 0,1 mm 5 m/s 660 mmHg 53%
    16:00 +8°C° 0,2 mm 5 m/s 660 mmHg 61%
    17:00 +6°C° 0,2 mm 4 m/s 660 mmHg 70%
    18:00 +5°C° 0,2 mm 4 m/s 660 mmHg 79%
    19:00 +4°C° 0,3 mm 4 m/s 660 mmHg 81%
    20:00 +3°C° 0,3 mm 4 m/s 661 mmHg 83%
    21:00 +1°C° 0,3 mm 4 m/s 661 mmHg 86%
    22:00 0°C° 0,6 mm 4 m/s 661 mmHg 87%
    23:00 0°C° 0,6 mm 3 m/s 661 mmHg 88%

    Poimâine, 1 Aprilie, Sâmbătă

    Timp Temperatura Precipitaţii Vânt Presiune Umiditate
    00:00 0°C° 0,6 mm 3 m/s 661 mmHg 89%
    01:00 -1°C° 0,1 mm 3 m/s 661 mmHg 89%
    02:00 -1°C° 0,1 mm 3 m/s 660 mmHg 89%
    03:00 -2°C° 0,1 mm 3 m/s 660 mmHg 90%
    04:00 -2°C° 0,1 mm 2 m/s 660 mmHg 89%
    05:00 -2°C° 0,1 mm 2 m/s 660 mmHg 88%
    06:00 -2°C° 0,1 mm 2 m/s 661 mmHg 88%
    07:00 -1°C° 0,1 mm 2 m/s 661 mmHg 83%
    08:00 +1°C° 0,1 mm 2 m/s 661 mmHg 79%
    09:00 +2°C° 0,1 mm 2 m/s 661 mmHg 75%
    10:00 +3°C° 0 mm 2 m/s 661 mmHg 72%
    11:00 +4°C° 0 mm 2 m/s 661 mmHg 69%
    12:00 +5°C° 0 mm 2 m/s 660 mmHg 67%
    13:00 +5°C° 0,2 mm 2 m/s 660 mmHg 68%
    14:00 +5°C° 0,2 mm 2 m/s 659 mmHg 69%
    15:00 +5°C° 0,2 mm 2 m/s 659 mmHg 70%
    16:00 +5°C° 0,4 mm 1 m/s 659 mmHg 74%
    17:00 +5°C° 0,4 mm 1 m/s 658 mmHg 79%
    18:00 +4°C° 0,4 mm 1 m/s 658 mmHg 84%
    19:00 +4°C° 0,3 mm 1 m/s 659 mmHg 86%
    20:00 +3°C° 0,3 mm 1 m/s 659 mmHg 88%
    21:00 +3°C° 0,3 mm 1 m/s 659 mmHg 89%
    22:00 +2°C° 0,2 mm 1 m/s 659 mmHg 90%
    23:00 +1°C° 0,2 mm 0 m/s 659 mmHg 90%

    2 Aprilie, Duminică

    Timp Temperatura Precipitaţii Vânt Presiune Umiditate
    00:00 +1°C° 0,2 mm 0 m/s 659 mmHg 91%
    01:00 +1°C° 0,1 mm 0 m/s 659 mmHg 92%
    02:00 0°C° 0,1 mm 0 m/s 659 mmHg 93%
    03:00 0°C° 0,1 mm 0 m/s 659 mmHg 94%
    04:00 0°C° 0,1 mm 0 m/s 659 mmHg 94%
    05:00 0°C° 0,1 mm 0 m/s 659 mmHg 94%
    06:00 0°C° 0,1 mm 0 m/s 660 mmHg 94%
    07:00 +2°C° 0,2 mm 1 m/s 660 mmHg 89%
    08:00 +4°C° 0,2 mm 1 m/s 661 mmHg 85%
    09:00 +4°C° 0,2 mm 2 m/s 662 mmHg 80%
    10:00 +4°C° 0,4 mm 2 m/s 662 mmHg 78%
    11:00 +5°C° 0,4 mm 2 m/s 662 mmHg 77%
    12:00 +4°C° 0,4 mm 3 m/s 662 mmHg 75%
    13:00 +4°C° 0,5 mm 3 m/s 662 mmHg 75%
    14:00 +4°C° 0,5 mm 3 m/s 662 mmHg 75%
    15:00 +4°C° 0,5 mm 3 m/s 662 mmHg 75%
    16:00 +3°C° 0,3 mm 3 m/s 662 mmHg 79%
    17:00 +3°C° 0,3 mm 2 m/s 662 mmHg 82%
    18:00 +2°C° 0,3 mm 2 m/s 662 mmHg 85%
    19:00 +2°C° 0,2 mm 2 m/s 662 mmHg 88%
    20:00 +1°C° 0,2 mm 2 m/s 663 mmHg 90%
    21:00 +1°C° 0,2 mm 1 m/s 663 mmHg 93%
    22:00 +1°C° 0,1 mm 1 m/s 663 mmHg 93%
    23:00 0°C° 0,1 mm 1 m/s 663 mmHg 93%

    3 Aprilie, Luni

    Timp Temperatura Precipitaţii Vânt Presiune Umiditate
    00:00 0°C° 0,1 mm 1 m/s 662 mmHg 93%
    01:00 0°C° 0,1 mm 1 m/s 662 mmHg 93%
    02:00 -1°C° 0,1 mm 1 m/s 662 mmHg 92%
    03:00 -1°C° 0,1 mm 1 m/s 662 mmHg 92%
    04:00 -1°C° 0,1 mm 1 m/s 662 mmHg 91%
    05:00 -1°C° 0,1 mm 1 m/s 662 mmHg 90%
    06:00 -2°C° 0,1 mm 1 m/s 662 mmHg 90%
    07:00 +1°C° 0 mm 1 m/s 662 mmHg 83%
    08:00 +3°C° 0 mm 1 m/s 663 mmHg 75%
    09:00 +5°C° 0 mm 1 m/s 663 mmHg 68%
    10:00 +6°C° 0 mm 1 m/s 663 mmHg 65%
    11:00 +7°C° 0 mm 1 m/s 663 mmHg 62%
    12:00 +8°C° 0 mm 1 m/s 663 mmHg 59%
    13:00 +7°C° 0 mm 2 m/s 662 mmHg 58%
    14:00 +8°C° 0 mm 2 m/s 662 mmHg 57%
    15:00 +8°C° 0 mm 2 m/s 662 mmHg 57%
    16:00 +7°C° 0 mm 2 m/s 661 mmHg 63%
    17:00 +6°C° 0 mm 1 m/s 661 mmHg 69%
    18:00 +5°C° 0 mm 1 m/s 661 mmHg 75%
    19:00 +4°C° 0 mm 1 m/s 661 mmHg 78%
    20:00 +2°C° 0 mm 1 m/s 661 mmHg 81%
    21:00 +1°C° 0 mm 1 m/s 661 mmHg 84%
    22:00 +1°C° 0 mm 1 m/s 661 mmHg 82%
    23:00 +1°C° 0 mm 1 m/s 661 mmHg 80%

    4 Aprilie, Marţi

    Timp Temperatura Precipitaţii Vânt Presiune Umiditate
    00:00 -1°C° 0 mm 2 m/s 661 mmHg 78%
    01:00 -1°C° 0 mm 2 m/s 661 mmHg 77%
    02:00 -1°C° 0 mm 2 m/s 661 mmHg 76%
    03:00 -1°C° 0 mm 2 m/s 660 mmHg 75%
    04:00 -2°C° 0 mm 2 m/s 660 mmHg 73%
    05:00 -2°C° 0 mm 2 m/s 661 mmHg 72%
    06:00 -2°C° 0 mm 2 m/s 661 mmHg 70%
    07:00 +3°C° 0 mm 1 m/s 661 mmHg 62%
    08:00 +6°C° 0 mm 1 m/s 662 mmHg 54%
    09:00 +9°C° 0 mm 1 m/s 662 mmHg 46%
    10:00 +10°C° 0 mm 1 m/s 662 mmHg 43%
    11:00 +12°C° 0 mm 1 m/s 662 mmHg 40%
    12:00 +13°C° 0 mm 1 m/s 662 mmHg 37%
    13:00 +13°C° 0 mm 1 m/s 662 mmHg 37%
    14:00 +13°C° 0 mm 1 m/s 661 mmHg 37%
    15:00 +14°C° 0 mm 2 m/s 661 mmHg 37%
    16:00 +12°C° 0 mm 1 m/s 661 mmHg 45%
    17:00 +10°C° 0 mm 1 m/s 660 mmHg 53%
    18:00 +8°C° 0 mm 1 m/s 660 mmHg 60%
    19:00 +7°C° 0 mm 1 m/s 660 mmHg 62%
    20:00 +6°C° 0 mm 1 m/s 660 mmHg 63%
    21:00 +4°C° 0 mm 2 m/s 660 mmHg 64%
    22:00 +4°C° 0 mm 2 m/s 660 mmHg 64%
    23:00 +3°C° 0 mm 2 m/s 660 mmHg 64%
    Arată mai mult